Location: Sungai Geng
(2.6167°N, 114.1333°E)
Time: 10:36:28
(UTC+00:00)

Daily predictions for brighter satellites

Satellite Brightness Start Highest point End
(mag) Time Altitude Azimuth Time Altitude Azimuth Time Altitude Azimuth
ARGOS 4.0 12:07:07 12° S 12:11:56 47° WSW 12:17:03 10° NNW
YAOGAN 1 4.3 12:09:09 12° SSW 12:12:31 30° WSW 12:16:19 10° NW
Cosmos 1763 Rocket 3.4 12:10:23 10° NNW 12:15:30 79° WSW 12:16:00 71° SSW
Geosat 4.1 12:15:48 64° SSW 12:16:26 73° WSW 12:21:25 10° NNW
ARIANE 5 R/B 3.1 12:06:44 10° W 12:20:55 74° SSW 12:20:55 74° SSW
Cosmos 1766 Rocket 4.4 12:20:08 10° NNW 12:24:16 49° W 12:24:16 49° W
Maqsat-B 4.5 12:29:24 10° W 12:40:53 40° SSW 12:40:53 40° SSW
USA 229 DEB 4.2 12:38:44 10° NNW 12:45:07 57° NNE 12:45:07 57° NNE
USA 229 4.2 12:38:49 10° NNW 12:45:10 56° NNE 12:45:10 56° NNE
Lacrosse 5 rocket 4.4 12:55:19 10° NNW 12:55:49 13° NNW 12:55:49 13° NNW
ARIANE 5 R/B 3.8 12:44:34 10° W 13:01:38 56° WSW 13:01:38 56° WSW
NOSS 3-1 (A) 4.4 12:56:45 10° NNW 13:04:19 69° N 13:04:19 69° N
Atlas Centaur 2 4.5 19:08:20 23° NE 19:08:20 23° NE 19:10:29 10° NE
ARIANE 5 R/B 4.4 19:13:08 26° ESE 19:13:08 26° ESE 19:20:05 10° E
Cosmos 2322 Rocket 4.3 19:28:05 21° E 19:28:05 21° E 19:31:47 10° ENE
COSMOS 2455 4.5 19:32:53 10° N 19:38:02 30° ENE 19:43:12 10° SE
USA 238 DEB 4.5 19:38:59 42° E 19:38:59 42° E 19:44:26 10° NE
USA 238 4.5 19:39:04 42° E 19:39:04 42° E 19:44:32 10° NE
Aurora 2 Rocket 3.9 19:52:56 67° ESE 19:52:56 67° ESE 20:00:55 10° ENE
Cosmos 2360 Rocket 4.5 19:51:19 13° SE 19:54:19 19° ESE 19:58:15 10° ENE
CZ-3 Stage 3 3.1 20:00:35 62° NE 20:00:35 62° NE 20:03:19 10° NE
Centaur D-1AR AC-38 3.6 20:14:08 69° ENE 20:14:08 69° ENE 20:17:23 10° ESE
CZ-3B Rocket 3.8 20:14:58 37° SSW 20:17:33 47° SSE 20:56:03 10° ENE
CZ-3B Rocket 3.8 20:14:58 36° SSW 20:17:33 47° SSE 20:56:03 10° ENE
CZ-3B Rocket 3.8 20:14:58 37° SSW 20:17:33 47° SSE 20:56:04 10° ENE
CZ-3B Rocket 3.8 20:14:58 37° SSW 20:17:34 47° SSE 20:56:03 10° ENE
Centaur AC-42 3.0 20:17:09 51° WNW 20:18:22 61° NNW 20:38:41 10° ENE
CENTAUR R/B 1.9 20:21:01 81° N 20:21:01 81° N 20:26:15 10° NNE
Okean 1-7 Rocket 4.3 20:20:38 47° ESE 20:21:15 51° E 20:25:37 10° NNE
Milstar 3 3.7 20:16:22 21° NW 20:21:20 57° NNE 20:32:14 10° ESE
SWIFT 3.6 20:22:45 37° NNE 20:22:45 37° NNE 20:25:47 10° NE
ALOS 2.8 20:19:09 10° N 20:22:31 48° N 20:22:31 48° N
Ariane 44LP R/B 3.7 20:26:07 84° SE 20:26:07 84° SE 20:33:46 10° E
deb Centaur AC-2 4.1 20:30:05 86° SSE 20:30:06 86° SE 20:34:37 10° ENE
METEOR-M 4.0 20:25:39 10° NNE 20:31:00 87° ESE 20:32:45 44° S
SL-16 R/B 2.6 20:40:19 42° WNW 20:40:19 42° WNW 20:45:26 10° N
Meteor 1-21 Rocket 4.1 20:36:46 26° S 20:40:12 87° W 20:45:51 10° N
ARIANE 5 DEB (SYLDA) 3.8 20:40:23 34° SSW 20:40:23 34° SSW 20:43:21 10° SE
Meteor 2-10 Rocket 4.2 20:35:53 10° N 20:41:17 56° E 20:46:30 10° SSE
Cosmos 2227 Rocket 2.0 20:37:14 10° NNW 20:42:49 68° WSW 20:48:25 10° S
Cosmos 407 Rocket 3.5 20:38:03 10° N 20:43:24 87° ENE 20:48:43 10° SSE
CZ-2C R/B 4.5 20:42:24 10° NNW 20:43:30 14° NW 20:43:30 14° NW
GPS 2-04 Rocket1 3.6 20:45:05 27° N 20:46:17 37° NE 20:49:26 10° ESE
Cosmos 2297 Rocket 2.9 20:41:10 10° NW 20:49:24 24° SSW 20:51:47 10° S
ARIANE 5 DEB (SYLDA) 4.0 20:45:08 34° W 20:49:19 85° S 20:58:01 10° E
Cosmos 1331 Rocket 3.9 20:49:43 40° SW 20:51:20 60° WNW 20:56:23 10° N
NOSS 3-2 (C) 3.3 20:51:32 40° WSW 20:52:43 48° WNW 20:57:54 10° N
Atlas Centaur 2 4.0 20:50:55 17° WNW 20:53:10 20° NNW 20:57:29 10° NNE
Cosmos 2082 4.1 20:48:57 10° N 20:54:36 67° ENE 21:00:16 10° SSE
Cosmos 1441 Rocket 3.9 20:56:17 10° S 20:59:59 55° E 21:03:46 10° NNE
Cosmos 2058 Rocket 4.4 20:56:16 10° NNE 21:00:30 41° E 21:04:45 10° SSE
IRAS Rocket 4.2 20:55:47 10° SSE 21:01:18 84° ENE 21:06:50 10° NNW
Cosmos 1072 Rocket 4.5 20:55:02 10° NNW 21:01:19 66° W 21:07:41 10° S
ATLAS 2A CENTAUR R/B 4.1 20:59:21 23° WNW 21:01:42 38° N 21:14:16 10° NE
Cosmos 1328 3.7 21:00:13 13° S 21:03:51 87° W 21:07:54 10° N
Tsikada Rocket 4.2 20:59:31 12° SSW 21:05:20 51° W 21:11:31 10° NNW
Delta 198 3.3 21:07:32 31° W 21:09:12 55° SSW 21:12:54 10° SE
Ariane H10 3.6 21:11:33 17° S 21:11:33 17° S 21:12:53 10° SE
Cosmos 2322 Rocket 3.1 21:09:57 24° W 21:11:25 27° WNW 21:16:05 10° NNW
Ariane H10-3 1.1 21:13:30 45° WSW 21:14:01 69° S 21:16:30 10° E
YAOGAN 6 4.2 21:12:16 10° NNE 21:15:38 36° E 21:19:00 10° SSE
Cosmos 1606 Rocket 4.0 21:11:40 10° NNW 21:15:48 40° W 21:20:00 10° SSW
Cosmos 1726 Rocket 3.6 21:13:44 10° NNW 21:18:00 53° W 21:22:19 10° S
GPS 2-18 Rocket1 4.4 21:18:07 21° SW 21:19:06 24° SSW 21:22:16 10° SE
Cosmos 1602 Rocket 3.4 21:16:34 10° S 21:20:51 69° W 21:25:07 10° N
Cosmos 1758 Rocket 4.3 21:16:57 10° S 21:21:13 55° E 21:25:29 10° NNE
Cosmos 1703 4.4 21:20:30 22° WSW 21:21:17 23° W 21:24:24 10° NNW
SJ-12 4.0 21:17:55 10° N 21:21:56 53° WNW 21:25:57 10° SSW
Cosmos 2219 4.3 21:17:51 10° WNW 21:22:00 21° WSW 21:26:10 10° SSW
Cosmos 1184 Rocket 3.2 21:20:48 20° SW 21:22:32 37° W 21:25:29 10° NNW
COSMOS 2455 3.9 21:19:13 10° WNW 21:23:40 22° WSW 21:28:08 10° SSW
BREEZE-M R/B 3.9 21:17:06 10° NW 21:24:20 66° NE 21:27:00 10° SE
USA 32 4.3 21:21:44 10° NNW 21:26:41 44° W 21:31:40 10° SSW
ARIANE 5 R/B 1.7 21:25:30 23° WSW 21:26:42 69° S 21:31:31 10° E
Ariane H10+ 2.9 21:21:44 16° WSW 21:26:43 32° SSW 21:29:59 10° SE
Hubble Space Telescope 3.2 21:29:00 10° S 21:30:54 13° SSE 21:32:48 10° ESE
Cosmos 1626 Rocket 4.3 21:27:30 10° SSW 21:31:17 29° W 21:35:03 10° NNW
CZ-3 R/B 4.1 21:06:36 10° W 21:34:09 33° SW 21:42:50 10° SSE
Cosmos 2360 Rocket 3.1 21:33:11 10° SW 21:38:01 29° WNW 21:42:51 10° NNW
Aureole 2 Rocket 3.2 21:36:43 10° N 21:39:18 42° ENE 21:41:52 10° SSE
ARIANE 3 DEB 4.1 21:39:41 10° SW 21:40:59 12° S 21:42:08 10° SSE
Cosmos 2219 Rocket 2.3 21:36:15 10° SSW 21:41:52 83° ESE 21:47:30 10° NNE
CZ-4C R/B 2.8 21:39:15 10° S 21:42:38 66° WSW 21:45:55 10° NNW
GPS 2-12 Rocket1 3.1 21:43:20 10° WSW 21:47:44 67° SSE 21:52:08 10° ENE
Meteor 1-31 Rocket 4.3 21:45:21 10° NNW 21:48:07 18° WNW 21:50:52 10° WSW
Cosmos 2263 Rocket 3.0 21:42:36 10° N 21:48:09 58° ENE 21:53:43 10° SSE
GPS 2-17 Rocket1 4.2 21:47:05 10° WSW 21:50:51 26° SSW 21:54:34 10° SE
IUS-15 SRM-1 4.5 21:49:45 10° W 21:52:20 18° NW 21:53:53 10° N
SKYMED 2 4.4 21:50:24 10° SSE 21:54:40 57° ENE 21:58:54 10° N
ASTEX 1 4.1 21:51:29 10° SSW 21:55:51 32° W 22:00:14 10° NNW
BLOCK DM-SL R/B 2.2 21:59:13 10° W 22:08:06 68° S 22:10:37 10° E
ARIANE 5 R/B 4.2 21:20:40 10° W 22:11:38 76° SSW 22:17:53 10° ESE
